Previsão horária em Ploske

Hoje, 3 Março, Quarta-feira

Tempo Temperatura Precipitação Vento Pressão Humidade
00:00 +1°C° 0 mm 1 m/s 722 mmHg 88%
01:00 +1°C° 0 mm 1 m/s 722 mmHg 89%
02:00 +1°C° 0 mm 1 m/s 722 mmHg 90%
03:00 0°C° 0 mm 1 m/s 722 mmHg 90%
04:00 0°C° 0 mm 1 m/s 722 mmHg 90%
05:00 0°C° 0 mm 1 m/s 721 mmHg 91%
06:00 0°C° 0 mm 1 m/s 721 mmHg 89%
07:00 +1°C° 0 mm 1 m/s 721 mmHg 87%
08:00 +1°C° 0 mm 1 m/s 721 mmHg 86%
09:00 +3°C° 0 mm 1 m/s 721 mmHg 79%
10:00 +6°C° 0 mm 1 m/s 722 mmHg 73%
11:00 +8°C° 0 mm 1 m/s 722 mmHg 66%
12:00 +9°C° 0 mm 1 m/s 721 mmHg 64%
13:00 +10°C° 0 mm 1 m/s 721 mmHg 62%
14:00 +9°C° 0 mm 2 m/s 721 mmHg 60%
15:00 +9°C° 0 mm 2 m/s 720 mmHg 66%
16:00 +9°C° 0 mm 1 m/s 719 mmHg 72%
17:00 +8°C° 0 mm 1 m/s 719 mmHg 77%
18:00 +5°C° 0 mm 2 m/s 718 mmHg 81%
19:00 +4°C° 0 mm 2 m/s 718 mmHg 85%
20:00 +2°C° 0 mm 2 m/s 718 mmHg 88%
21:00 +2°C° 0 mm 2 m/s 717 mmHg 88%
22:00 +1°C° 0 mm 3 m/s 717 mmHg 89%
23:00 +1°C° 0 mm 3 m/s 716 mmHg 89%

Amanhã, 4 Março, Quinta-feira

Tempo Temperatura Precipitação Vento Pressão Humidade
00:00 +1°C° 0 mm 3 m/s 716 mmHg 88%
01:00 +1°C° 0 mm 3 m/s 716 mmHg 88%
02:00 0°C° 0 mm 4 m/s 716 mmHg 87%
03:00 0°C° 0 mm 4 m/s 715 mmHg 87%
04:00 0°C° 0 mm 4 m/s 714 mmHg 87%
05:00 0°C° 0 mm 4 m/s 714 mmHg 86%
06:00 0°C° 0 mm 4 m/s 713 mmHg 86%
07:00 0°C° 0 mm 4 m/s 713 mmHg 86%
08:00 0°C° 0 mm 4 m/s 713 mmHg 86%
09:00 +1°C° 0 mm 4 m/s 712 mmHg 81%
10:00 +4°C° 0 mm 4 m/s 712 mmHg 77%
11:00 +5°C° 0 mm 4 m/s 712 mmHg 72%
12:00 +6°C° 0 mm 4 m/s 711 mmHg 70%
13:00 +6°C° 0 mm 5 m/s 711 mmHg 68%
14:00 +7°C° 0 mm 5 m/s 711 mmHg 67%
15:00 +6°C° 0 mm 4 m/s 710 mmHg 70%
16:00 +6°C° 0 mm 4 m/s 709 mmHg 74%
17:00 +5°C° 0 mm 4 m/s 709 mmHg 77%
18:00 +4°C° 0 mm 3 m/s 709 mmHg 80%
19:00 +4°C° 0 mm 3 m/s 709 mmHg 83%
20:00 +3°C° 0 mm 3 m/s 709 mmHg 85%
21:00 +3°C° 0 mm 3 m/s 708 mmHg 86%
22:00 +4°C° 0 mm 2 m/s 708 mmHg 87%
23:00 +5°C° 0 mm 2 m/s 708 mmHg 88%

Depois de amanhã, 5 Março, Sexta-feira

Tempo Temperatura Precipitação Vento Pressão Humidade
00:00 +4°C° 0.2 mm 2 m/s 708 mmHg 90%
01:00 +4°C° 0.2 mm 2 m/s 707 mmHg 92%
02:00 +4°C° 0.2 mm 2 m/s 707 mmHg 94%
03:00 +3°C° 1 mm 2 m/s 707 mmHg 95%
04:00 +3°C° 1 mm 2 m/s 706 mmHg 96%
05:00 +3°C° 1 mm 2 m/s 706 mmHg 97%
06:00 +2°C° 2 mm 2 m/s 706 mmHg 97%
07:00 +1°C° 2 mm 2 m/s 706 mmHg 97%
08:00 -1°C° 2 mm 2 m/s 707 mmHg 98%
09:00 -1°C° 1 mm 2 m/s 707 mmHg 97%
10:00 -1°C° 1 mm 3 m/s 708 mmHg 96%
11:00 -1°C° 1 mm 3 m/s 708 mmHg 96%
12:00 -2°C° 0.5 mm 3 m/s 709 mmHg 94%
13:00 -2°C° 0.5 mm 3 m/s 709 mmHg 92%
14:00 -3°C° 0.5 mm 4 m/s 710 mmHg 90%
15:00 -2°C° 0.1 mm 3 m/s 710 mmHg 88%
16:00 -2°C° 0.1 mm 3 m/s 710 mmHg 86%
17:00 -2°C° 0.1 mm 3 m/s 711 mmHg 84%
18:00 -3°C° 0 mm 2 m/s 711 mmHg 85%
19:00 -4°C° 0 mm 2 m/s 712 mmHg 85%
20:00 -5°C° 0 mm 2 m/s 712 mmHg 86%
21:00 -6°C° 0 mm 2 m/s 713 mmHg 86%
22:00 -4°C° 0 mm 1 m/s 713 mmHg 85%
23:00 -6°C° 0 mm 1 m/s 714 mmHg 85%

6 Março, Sábado

Tempo Temperatura Precipitação Vento Pressão Humidade
00:00 -6°C° 0 mm 1 m/s 714 mmHg 85%
01:00 -6°C° 0 mm 1 m/s 714 mmHg 85%
02:00 -6°C° 0 mm 1 m/s 715 mmHg 85%
03:00 -6°C° 0 mm 1 m/s 715 mmHg 85%
04:00 -6°C° 0 mm 1 m/s 715 mmHg 84%
05:00 -6°C° 0 mm 1 m/s 715 mmHg 84%
06:00 -6°C° 0 mm 1 m/s 716 mmHg 84%
07:00 -6°C° 0 mm 1 m/s 716 mmHg 84%
08:00 -4°C° 0 mm 1 m/s 717 mmHg 84%
09:00 -5°C° 0.2 mm 2 m/s 717 mmHg 82%
10:00 -5°C° 0.2 mm 3 m/s 718 mmHg 80%
11:00 -4°C° 0.2 mm 4 m/s 718 mmHg 78%
12:00 -4°C° 0.1 mm 4 m/s 719 mmHg 73%
13:00 -4°C° 0.1 mm 4 m/s 719 mmHg 67%
14:00 -3°C° 0.1 mm 4 m/s 719 mmHg 61%
15:00 -4°C° 0 mm 4 m/s 719 mmHg 62%
16:00 -4°C° 0 mm 3 m/s 719 mmHg 62%
17:00 -5°C° 0 mm 3 m/s 719 mmHg 62%
18:00 -5°C° 0 mm 2 m/s 719 mmHg 67%
19:00 -4°C° 0 mm 1 m/s 719 mmHg 72%
20:00 -6°C° 0 mm 1 m/s 719 mmHg 77%
21:00 -6°C° 0 mm 1 m/s 719 mmHg 77%
22:00 -6°C° 0 mm 1 m/s 719 mmHg 78%
23:00 -6°C° 0 mm 1 m/s 719 mmHg 78%

7 Março, Domingo

Tempo Temperatura Precipitação Vento Pressão Humidade
00:00 -6°C° 0 mm 1 m/s 719 mmHg 78%
01:00 -7°C° 0 mm 2 m/s 719 mmHg 79%
02:00 -7°C° 0 mm 2 m/s 718 mmHg 79%
03:00 -7°C° 0 mm 2 m/s 718 mmHg 79%
04:00 -8°C° 0 mm 3 m/s 717 mmHg 79%
05:00 -8°C° 0 mm 3 m/s 717 mmHg 78%
06:00 -8°C° 0 mm 3 m/s 717 mmHg 76%
07:00 -8°C° 0 mm 4 m/s 716 mmHg 75%
08:00 -8°C° 0 mm 4 m/s 716 mmHg 73%
09:00 -7°C° 0 mm 5 m/s 716 mmHg 68%
10:00 -5°C° 0 mm 5 m/s 716 mmHg 64%
11:00 -4°C° 0 mm 5 m/s 716 mmHg 60%
12:00 -3°C° 0 mm 6 m/s 715 mmHg 59%
13:00 -3°C° 0 mm 6 m/s 714 mmHg 58%
14:00 -2°C° 0 mm 6 m/s 714 mmHg 57%
15:00 -3°C° 0 mm 6 m/s 713 mmHg 59%
16:00 -3°C° 0 mm 6 m/s 713 mmHg 62%
17:00 -2°C° 0 mm 5 m/s 712 mmHg 64%
18:00 -4°C° 0 mm 5 m/s 712 mmHg 67%
19:00 -4°C° 0 mm 5 m/s 711 mmHg 70%
20:00 -5°C° 0 mm 5 m/s 711 mmHg 73%
21:00 -5°C° 0 mm 5 m/s 711 mmHg 73%
22:00 -4°C° 0 mm 4 m/s 711 mmHg 74%
23:00 -5°C° 0 mm 4 m/s 711 mmHg 74%

8 Março, Segunda-feira

Tempo Temperatura Precipitação Vento Pressão Humidade
00:00 -5°C° 0 mm 4 m/s 710 mmHg 75%
01:00 -5°C° 0 mm 3 m/s 710 mmHg 75%
02:00 -6°C° 0 mm 3 m/s 710 mmHg 76%
03:00 -6°C° 0 mm 3 m/s 709 mmHg 77%
04:00 -6°C° 0 mm 3 m/s 709 mmHg 78%
05:00 -6°C° 0 mm 3 m/s 709 mmHg 78%
06:00 -6°C° 0.2 mm 3 m/s 709 mmHg 83%
07:00 -6°C° 0.2 mm 3 m/s 710 mmHg 87%
08:00 -6°C° 0.2 mm 3 m/s 710 mmHg 92%
09:00 -6°C° 0.3 mm 3 m/s 711 mmHg 86%
10:00 -5°C° 0.3 mm 3 m/s 711 mmHg 80%
11:00 -5°C° 0.3 mm 4 m/s 712 mmHg 73%
12:00 -5°C° 0 mm 4 m/s 712 mmHg 69%
13:00 -5°C° 0 mm 4 m/s 712 mmHg 65%
14:00 -4°C° 0 mm 4 m/s 712 mmHg 60%
15:00 -5°C° 0 mm 4 m/s 713 mmHg 62%
16:00 -5°C° 0 mm 4 m/s 713 mmHg 63%
17:00 -6°C° 0 mm 5 m/s 713 mmHg 65%
18:00 -7°C° 0 mm 4 m/s 714 mmHg 71%
19:00 -7°C° 0 mm 3 m/s 714 mmHg 77%
20:00 -8°C° 0 mm 3 m/s 715 mmHg 84%
21:00 -7°C° 0 mm 2 m/s 715 mmHg 83%
22:00 -8°C° 0 mm 2 m/s 716 mmHg 82%
23:00 -8°C° 0 mm 2 m/s 716 mmHg 81%
Mostrar mais

Necessitamos do seu Consentimento

A Meteoprog e os seus Fornecedores de Serviços podem armazenar e aceder a dados pessoais como cookies, identificadores do dispositivo ou outras tecnologias semelhantes existentes no seu dispositivo e processar estes dados para personalizar conteúdos e anúncios, assim como funcionalidades nas redes sociais e análise de tráfego.

  • Armazenar e/ou aceder a informações no seu dispositivo

    Os cookies, identificadores do dispositivo ou outras informações podem ser armazenados ou acedidos no seu dispositivo, para os fins acima indicados.

  • Anúncios e conteúdos personalizados, medição de anúncios e conteúdos, dados sobre o público-alvo e desenvolvimento de produtos

    Os anúncios e os conteúdos podem ser personalizados com base num perfil. Podem ser adicionados dados adicionais para uma maior personalização dos anúncios e dos conteúdos. A eficácia dos anúncios e dos conteúdos pode ser medida. Podem ser obtidas informações sobre o público que visualizou os anúncios e os conteúdos. Estes dados podem ser usados para desenvolver ou melhorar sistemas, softwares ou a experiência do utilizador.

Ao clicar em "Eu concordo”, permitirá o uso de cookies, identificadores do dispositivo e web beacons mencionados ou outras tecnologias semelhantes. As configurações do navegador do seu dispositivo podem ser alteradas.

Para certos fins, podem ser invocados interesses legítimos ao invés de consentimento. Pode ler mais informação sobre este assunto na nossa Política de Privacidade e Cookies.